This is the latest recevied weather packets stored in our database for station/object W2SRH. If no packets are shown the sender has not sent any weather packets the latest 10 day(s).
| Time | Temp. | Humidity | Pressure | Rain* | Wind** | Luminosity | Snow |
|---|---|---|---|---|---|---|---|
| 1777720745 | 10° C | 75% | 1003.8 hPa | 0 mm | 0 m/s | - | - |
| 1777720144 | 9.44° C | 78% | 1003.7 hPa | 0 mm | 0 m/s | - | - |
| 1777719544 | 8.89° C | 80% | 1003.6 hPa | 0 mm | 0 m/s | - | - |
| 1777718944 | 8.89° C | 81% | 1003.3 hPa | 0 mm | 0 m/s | - | - |
| 1777718344 | 8.89° C | 81% | 1003.2 hPa | 0 mm | 0 m/s | - | - |
| 1777717744 | 8.89° C | 81% | 1003.4 hPa | 0 mm | 0 m/s | - | - |
| 1777716544 | 8.89° C | 79% | 1003.2 hPa | 0 mm | 0 m/s | - | - |
| 1777715946 | 9.44° C | 78% | 1003.2 hPa | 0 mm | 0 m/s | - | - |
| 1777715344 | 9.44° C | 76% | 1003.1 hPa | 0 mm | 0 m/s | - | - |
| 1777714744 | 10° C | 77% | 1003.3 hPa | 0 mm | 0 m/s | - | - |
| 1777714144 | 10° C | 76% | 1003.1 hPa | 0 mm | 0 m/s | - | - |
| 1777713544 | 10° C | 75% | 1003 hPa | 0 mm | 0 m/s | - | - |
| 1777712944 | 10° C | 74% | 1003 hPa | 0 mm | 0 m/s | - | - |
| 1777712344 | 10.56° C | 73% | 1002.9 hPa | 0 mm | 0 m/s | - | - |
| 1777711747 | 10.56° C | 72% | 1002.9 hPa | 0 mm | 0 m/s | - | - |
| 1777711143 | 10.56° C | 71% | 1002.9 hPa | 0 mm | 0 m/s | - | - |
| 1777710543 | 10.56° C | 71% | 1003 hPa | 0 mm | 0 m/s | - | - |
| 1777709947 | 11.11° C | 70% | 1003.3 hPa | 0 mm | 0 m/s | - | - |
| 1777709344 | 11.11° C | 69% | 1003.1 hPa | 0 mm | 0 m/s | - | - |
| 1777708744 | 11.11° C | 68% | 1003.2 hPa | 0 mm | 0.45 m/s, 310° | - | - |
| 1777708144 | 11.11° C | 69% | 1003.1 hPa | 0 mm | 0 m/s | - | - |
| 1777707548 | 11.11° C | 70% | 1003.1 hPa | 0 mm | 1.34 m/s, 306° | - | - |
| 1777706946 | 11.11° C | 73% | 1003.1 hPa | 0 mm | 0 m/s | - | - |
| 1777706345 | 11.11° C | 74% | 1003.2 hPa | 0 mm | 0 m/s | - | - |
| 1777705744 | 11.11° C | 75% | 1003.2 hPa | 0 mm | 0 m/s | - | - |
* Rain latest hour (hover to see other rain measurements)
** Current wind speed in m/s (hover to see current wind gust speed)